| time (UTC) | temp F | wind direction | speed MPH | gust MPH | rain 1hr in | rain 24hr in | rain mn in | humidity % | barometer mb |
| 20260507060100 | 59 | 197 | 3.0 | 9.0 | 0.00 | 0.00 | 0.00 | 83 | 1009.1 |
| 20260507054608 | 59 | 187 | 1.0 | 7.0 | 0.00 | 0.00 | 0.00 | 84 | 1008.8 |
| 20260507053054 | 58 | 0 | 0.0 | 4.0 | 0.00 | 0.00 | 0.00 | 86 | 1008.5 |
| 20260507051552 | 57 | 0 | 0.0 | 1.0 | 0.00 | 0.00 | 0.00 | 89 | 1008.3 |
| 20260507050056 | 57 | 0 | 0.0 | 1.0 | 0.00 | 0.00 | 0.00 | 90 | 1008.3 |
| 20260507044559 | 56 | 0 | 0.0 | 1.0 | 0.00 | 0.00 | 0.00 | 90 | 1008.2 |
| 20260507043052 | 56 | 0 | 0.0 | 2.0 | 0.00 | 0.00 | 0.00 | 90 | 1007.9 |
| 20260507041552 | 56 | 0 | 0.0 | 1.0 | 0.00 | 0.00 | 0.00 | 90 | 1007.8 |
| 20260507040053 | 56 | 0 | 0.0 | 0.0 | 0.00 | 0.00 | 0.00 | 89 | 1007.4 |
| 20260507034553 | 56 | 0 | 0.0 | 0.0 | 0.00 | 0.00 | 0.00 | 89 | 1007.4 |
| 20260507033052 | 56 | 0 | 0.0 | 2.0 | 0.00 | 0.00 | 0.00 | 88 | 1007.3 |
| 20260507031554 | 57 | 0 | 0.0 | 2.0 | 0.00 | 0.00 | 0.00 | 88 | 1007.4 |
| 20260507030106 | 57 | 0 | 0.0 | 1.0 | 0.00 | 0.00 | 0.00 | 86 | 1007.1 |
| 20260507024605 | 56 | 0 | 0.0 | 0.0 | 0.00 | 0.00 | 0.00 | 85 | 1007.0 |
| 20260507023055 | 56 | 0 | 0.0 | 0.0 | 0.00 | 0.00 | 0.00 | 85 | 1006.7 |
| 20260507021613 | 56 | 0 | 0.0 | 0.0 | 0.00 | 0.00 | 0.00 | 87 | 1006.8 |
| 20260507020103 | 56 | 0 | 0.0 | 0.0 | 0.00 | 0.00 | 0.00 | 87 | 1006.7 |
| 20260507014614 | 56 | 0 | 0.0 | 0.0 | 0.00 | 0.00 | 0.00 | 87 | 1006.8 |
| 20260507013116 | 56 | 0 | 0.0 | 0.0 | 0.00 | 0.00 | 0.00 | 86 | 1006.6 |
| 20260507011559 | 57 | 0 | 0.0 | 0.0 | 0.00 | 0.00 | 0.00 | 85 | 1006.5 |
| 20260507010118 | 57 | 0 | 0.0 | 0.0 | 0.00 | 0.00 | 0.00 | 84 | 1006.5 |
| 20260507004608 | 58 | 0 | 0.0 | 0.0 | 0.00 | 0.00 | 0.00 | 83 | 1006.7 |
| 20260507003102 | 58 | 0 | 0.0 | 0.0 | 0.00 | 0.00 | 0.00 | 82 | 1006.7 |
| 20260507001607 | 59 | 0 | 0.0 | 0.0 | 0.00 | 0.00 | 0.00 | 81 | 1006.5 |
| 20260507000059 | 60 | 0 | 0.0 | 0.0 | 0.00 | 0.00 | 0.00 | 79 | 1006.6 |
| 20260506234609 | 60 | 0 | 0.0 | 0.0 | 0.00 | 0.00 | 0.00 | 77 | 1006.6 |
| 20260506233059 | 61 | 0 | 0.0 | 0.0 | 0.00 | 0.00 | 0.00 | 74 | 1006.6 |
| 20260506231603 | 63 | 0 | 0.0 | 0.0 | 0.00 | 0.00 | 0.00 | 71 | 1006.7 |
| 20260506230103 | 63 | 0 | 0.0 | 0.0 | 0.00 | 0.00 | 0.00 | 69 | 1006.7 |
| 20260506224558 | 64 | 0 | 0.0 | 0.0 | 0.00 | 0.00 | 0.00 | 68 | 1006.6 |
| 20260506223058 | 64 | 0 | 0.0 | 1.0 | 0.00 | 0.00 | 0.00 | 66 | 1006.6 |
| 20260506221558 | 65 | 0 | 0.0 | 0.0 | 0.00 | 0.00 | 0.00 | 65 | 1006.4 |
| 20260506220057 | 66 | 0 | 0.0 | 0.0 | 0.00 | 0.00 | 0.00 | 64 | 1006.3 |
| 20260506214554 | 66 | 0 | 0.0 | 0.0 | 0.00 | 0.00 | 0.00 | 62 | 1006.2 |
| 20260506213054 | 67 | 0 | 0.0 | 2.0 | 0.00 | 0.00 | 0.00 | 61 | 1006.2 |
| 20260506211554 | 67 | 196 | 0.0 | 2.0 | 0.00 | 0.00 | 0.00 | 61 | 1006.2 |
| 20260506210055 | 67 | 0 | 0.0 | 4.0 | 0.00 | 0.00 | 0.00 | 61 | 1006.1 |
| 20260506204555 | 67 | 0 | 0.0 | 3.0 | 0.00 | 0.00 | 0.00 | 61 | 1006.1 |
| 20260506203055 | 67 | 0 | 0.0 | 3.0 | 0.00 | 0.00 | 0.00 | 61 | 1006.0 |
| 20260506201610 | 67 | 0 | 0.0 | 0.0 | 0.00 | 0.00 | 0.00 | 62 | 1005.8 |
| 20260506200052 | 67 | 0 | 0.0 | 0.0 | 0.00 | 0.00 | 0.00 | 61 | 1005.6 |
| 20260506194554 | 68 | 0 | 0.0 | 0.0 | 0.00 | 0.00 | 0.00 | 60 | 1005.7 |
| 20260506193054 | 68 | 0 | 0.0 | 0.0 | 0.00 | 0.00 | 0.00 | 59 | 1005.6 |
| 20260506191558 | 69 | 0 | 0.0 | 0.0 | 0.00 | 0.00 | 0.00 | 59 | 1005.6 |
| 20260506190054 | 70 | 0 | 0.0 | 0.0 | 0.00 | 0.00 | 0.00 | 58 | 1005.5 |
| 20260506184601 | 70 | 0 | 0.0 | 0.0 | 0.00 | 0.00 | 0.00 | 56 | 1005.3 |
| 20260506183055 | 71 | 0 | 0.0 | 0.0 | 0.00 | 0.00 | 0.00 | 54 | 1005.1 |
| 20260506181551 | 72 | 0 | 0.0 | 0.0 | 0.00 | 0.00 | 0.00 | 52 | 1005.1 |
| 20260506180056 | 73 | 0 | 0.0 | 4.0 | 0.00 | 0.00 | 0.00 | 51 | 1005.1 |
| 20260506174554 | 75 | 0 | 0.0 | 7.0 | 0.00 | 0.00 | 0.00 | 49 | 1005.1 |
| 20260506173113 | 76 | 0 | 1.0 | 6.0 | 0.00 | 0.00 | 0.00 | 49 | 1005.2 |
| 20260506171557 | 75 | 0 | 0.0 | 7.0 | 0.00 | 0.00 | 0.00 | 50 | 1005.0 |
| 20260506170057 | 75 | 0 | 0.0 | 5.0 | 0.00 | 0.00 | 0.00 | 50 | 1005.0 |
| 20260506164555 | 75 | 0 | 1.0 | 10.0 | 0.00 | 0.00 | 0.00 | 51 | 1005.2 |
| 20260506163109 | 74 | 0 | 0.0 | 4.0 | 0.00 | 0.00 | 0.00 | 52 | 1005.2 |
| 20260506161600 | 74 | 163 | 0.0 | 6.0 | 0.00 | 0.00 | 0.00 | 51 | 1005.3 |
| 20260506160054 | 74 | 0 | 0.0 | 6.0 | 0.00 | 0.00 | 0.00 | 50 | 1005.5 |
| 20260506154600 | 75 | 161 | 0.0 | 5.0 | 0.00 | 0.00 | 0.00 | 51 | 1005.8 |
| 20260506153052 | 74 | 175 | 0.0 | 5.0 | 0.00 | 0.00 | 0.00 | 51 | 1005.8 |
| 20260506151555 | 74 | 173 | 1.0 | 9.0 | 0.00 | 0.00 | 0.00 | 51 | 1005.9 |
| 20260506150053 | 75 | 198 | 4.0 | 9.0 | 0.00 | 0.00 | 0.00 | 50 | 1006.1 |
| 20260506144559 | 75 | 171 | 4.0 | 10.0 | 0.00 | 0.00 | 0.00 | 48 | 1006.1 |
| 20260506143053 | 75 | 0 | 5.0 | 12.0 | 0.00 | 0.00 | 0.00 | 49 | 1006.1 |
| 20260506141556 | 74 | 166 | 4.0 | 12.0 | 0.00 | 0.00 | 0.00 | 49 | 1006.4 |
| 20260506134557 | 76 | 0 | 4.0 | 13.0 | 0.00 | 0.00 | 0.00 | 47 | 1006.5 |
| 20260506133056 | 77 | 191 | 3.0 | 12.0 | 0.00 | 0.00 | 0.00 | 46 | 1006.4 |
| 20260506131558 | 76 | 254 | 2.0 | 13.0 | 0.00 | 0.00 | 0.00 | 48 | 1006.6 |
| 20260506130054 | 75 | 172 | 1.0 | 12.0 | 0.00 | 0.00 | 0.00 | 48 | 1006.8 |
| 20260506124558 | 74 | 167 | 4.0 | 13.0 | 0.00 | 0.00 | 0.00 | 49 | 1007.1 |
| 20260506123054 | 74 | 179 | 6.0 | 17.0 | 0.00 | 0.00 | 0.00 | 48 | 1007.1 |
| 20260506121600 | 74 | 169 | 3.0 | 14.0 | 0.00 | 0.00 | 0.00 | 52 | 1007.0 |
| 20260506120110 | 74 | 100 | 2.0 | 12.0 | 0.00 | 0.00 | 0.00 | 51 | 1007.0 |
| 20260506114610 | 73 | 145 | 4.0 | 12.0 | 0.00 | 0.00 | 0.00 | 52 | 1007.2 |
| 20260506113054 | 72 | 237 | 5.0 | 16.0 | 0.00 | 0.00 | 0.00 | 54 | 1007.0 |
| 20260506111555 | 72 | 176 | 2.0 | 14.0 | 0.00 | 0.00 | 0.00 | 54 | 1007.0 |
| 20260506110054 | 71 | 180 | 5.0 | 17.0 | 0.00 | 0.00 | 0.00 | 57 | 1007.1 |
| 20260506104555 | 71 | 178 | 7.0 | 16.0 | 0.00 | 0.00 | 0.00 | 56 | 1007.3 |
| 20260506103052 | 70 | 0 | 4.0 | 12.0 | 0.00 | 0.00 | 0.00 | 57 | 1007.1 |
| 20260506101557 | 71 | 189 | 4.0 | 13.0 | 0.00 | 0.00 | 0.00 | 57 | 1007.4 |
| 20260506100057 | 70 | 173 | 3.0 | 13.0 | 0.00 | 0.00 | 0.00 | 58 | 1007.3 |
| 20260506094557 | 69 | 302 | 4.0 | 17.0 | 0.00 | 0.00 | 0.00 | 61 | 1007.3 |
| 20260506093108 | 68 | 180 | 5.0 | 18.0 | 0.00 | 0.00 | 0.00 | 62 | 1007.4 |
| 20260506091555 | 68 | 169 | 7.0 | 17.0 | 0.00 | 0.00 | 0.00 | 61 | 1007.3 |
| 20260506090103 | 68 | 172 | 2.0 | 12.0 | 0.00 | 0.00 | 0.00 | 63 | 1007.1 |
| 20260506084556 | 68 | 178 | 6.0 | 16.0 | 0.00 | 0.00 | 0.00 | 64 | 1007.0 |
| 20260506083054 | 67 | 80 | 4.0 | 16.0 | 0.00 | 0.00 | 0.00 | 65 | 1006.8 |
| 20260506081553 | 66 | 174 | 2.0 | 16.0 | 0.00 | 0.00 | 0.00 | 67 | 1007.0 |
| 20260506080107 | 65 | 178 | 3.0 | 17.0 | 0.00 | 0.00 | 0.00 | 68 | 1006.8 |
| 20260506073111 | 64 | 190 | 5.0 | 16.0 | 0.00 | 0.00 | 0.00 | 68 | 1007.0 |
| 20260506071557 | 64 | 169 | 4.0 | 15.0 | 0.00 | 0.00 | 0.00 | 69 | 1006.8 |
| 20260506061603 | 61 | 176 | 3.0 | 17.0 | 0.00 | 0.00 | 0.00 | 71 | 1006.5 |